User: anonymous   Login
Location: Berg
(47.2344°N, 9.5296°E)
Time: 18:01:25
(UTC+00:00)
Language:

Meteor 1-21 Rocket - Orbit

View from above orbital plane
View from above orbital plane
View from above satellite
View from above satellite

Ground track
Ground track

The orbit data is extracted from the following two-line orbital elements,

1 07715U 75023B   21109.87087599  .00000153  00000-0  83207-4 0  9996
2 07715  81.2186 308.7617 0051398 146.3353 214.1099 14.06797246362600
Epoch (UTC): 19 April 2021 20:54:03
Eccentricity: 0.0051398
inclination: 81.2186°
perigee height: 833 km
apogee height: 907 km
right ascension of ascending node: 308.7617°
argument of perigee: 146.3353°
revolutions per day: 14.06797246
mean anomaly at epoch: 214.1099°
orbit number at epoch: 36260

The dashed part of the orbit path shows where the satellite is in the earth's shadow,  

DLR